Killeen/Ft Hood, TX

10:04 AM CDT on September 20, 2017 (GMT -0500)
Hood Army Air Field

Weather History for KHLR - July, 2013

Change the Weather History Date:

Monday, July 29, 2013

  Actual Average Record
Temperature  
Mean Temperature 88 °F -  
Max Temperature 98 °F 95 °F 104 °F (1997)
Min Temperature 78 °F 75 °F 48 °F (1997)
Cooling Degree Days 23    
Growing Degree Days 38 (Base 50)    
Moisture  
Dew Point 69 °F    
Average Humidity 61    
Maximum Humidity 84    
Minimum Humidity 29    
Precipitation  
Precipitation 0.00 in - - ()
Sea Level Pressure  
Sea Level Pressure 30.01 in    
Wind  
Wind Speed 12 mph (SSE)    
Max Wind Speed 17 mph    
Max Gust Speed 25 mph    
Visibility 10 miles    
Events      
Averages and records for this station are not official NWS values.
T = Trace of Precipitation, MM = Missing Value Source: NWS Daily Summary

Daily Weather History Graph

Daily Weather History Graph

Search for Another Location

Airport or City:

Trip Planner

Search our weather history database for the weather conditions in past years. The results will help you decide how hot, cold, wet, or windy it might be!

Date:

Astronomy

Jul. 29, 2013 Rise Set
Actual Time 6:46 AM CDT 8:28 PM CDT
Civil Twilight 6:19 AM CDT 8:54 PM CDT
Nautical Twilight 5:47 AM CDT 9:26 PM CDT
Astronomical Twilight 5:14 AM CDT 9:59 PM CDT
Moon 12:23 AM CDT (7/29) 1:55 PM CDT (7/29)
Length of Visible Light 14h 35m
Length of Day
13h 42m
Waning Gibbous, 50% of the Moon is Illuminated
Jul 29
Waning Gibbous
Jul 29
Last Quarter
Aug 6
New
Aug 14
First Quarter
Aug 20
Full

Hourly Weather History & Observations

Time (CDT) Temp. Heat Index Dew Point Humidity Pressure Visibility Wind Dir Wind Speed Gust Speed Precip Events Conditions
12:56 AM 82.9 °F 87.5 °F 71.1 °F 67% 30.01 in 10.0 mi SSE 10.4 mph 19.6 mph N/A   Clear
1:56 AM 82.0 °F 86.7 °F 72.0 °F 71% 30.01 in 10.0 mi SE 13.8 mph 20.7 mph N/A   Clear
2:51 AM 80.6 °F 85.4 °F 73.4 °F 79% 29.96 in 10.0 mi SSE 16.1 mph 19.6 mph N/A   Mostly Cloudy
2:56 AM 80.1 °F 84.2 °F 73.0 °F 79% 30.02 in 10.0 mi SSE 11.5 mph 19.6 mph N/A   Mostly Cloudy
3:35 AM 80.6 °F 85.4 °F 73.4 °F 79% 29.96 in 10.0 mi SE 10.4 mph - N/A   Scattered Clouds
3:56 AM 80.1 °F 84.2 °F 73.0 °F 79% 30.02 in 10.0 mi SE 9.2 mph - N/A   Mostly Cloudy
4:27 AM 80.6 °F 85.4 °F 73.4 °F 79% 29.98 in 10.0 mi SSE 8.1 mph - N/A   Overcast
4:56 AM 79.0 °F - 73.9 °F 84% 30.03 in 10.0 mi SSE 6.9 mph - N/A   Mostly Cloudy
5:09 AM 78.8 °F - 73.4 °F 83% 29.97 in 10.0 mi SSE 6.9 mph - N/A   Scattered Clouds
5:56 AM 79.0 °F - 73.9 °F 84% 30.03 in 10.0 mi SE 6.9 mph - N/A   Mostly Cloudy
6:11 AM 78.8 °F - 73.4 °F 83% 29.97 in 10.0 mi SE 9.2 mph - N/A   Overcast
6:23 AM 78.8 °F - 73.4 °F 83% 29.97 in 10.0 mi SE 8.1 mph - N/A   Overcast
6:56 AM 79.0 °F - 73.9 °F 84% 30.04 in 10.0 mi SE 6.9 mph - N/A   Overcast
7:56 AM 80.1 °F 84.2 °F 73.0 °F 79% 30.06 in 10.0 mi SE 9.2 mph - N/A   Mostly Cloudy
8:56 AM 82.0 °F 86.7 °F 72.0 °F 71% 30.07 in 10.0 mi SSE 15.0 mph 23.0 mph N/A   Partly Cloudy
9:56 AM 84.9 °F 90.1 °F 71.1 °F 63% 30.08 in 10.0 mi SSE 16.1 mph 23.0 mph N/A   Mostly Cloudy
10:56 AM 87.1 °F 92.8 °F 71.1 °F 59% 30.07 in 10.0 mi South 12.7 mph 21.9 mph N/A   Scattered Clouds
11:56 AM 90.0 °F 96.9 °F 72.0 °F 55% 30.02 in 10.0 mi South 15.0 mph 21.9 mph N/A   Clear
12:56 PM 91.9 °F 99.5 °F 72.0 °F 52% 30.02 in 10.0 mi South 9.2 mph 18.4 mph N/A   Clear
1:56 PM 93.9 °F 99.1 °F 69.1 °F 44% 30.00 in 10.0 mi SSE 15.0 mph 21.9 mph N/A   Clear
2:56 PM 96.1 °F 98.3 °F 64.0 °F 35% 29.98 in 10.0 mi SSE 17.3 mph 25.3 mph N/A   Clear
3:56 PM 98.1 °F 100.7 °F 64.0 °F 33% 29.98 in 10.0 mi SSE 13.8 mph 23.0 mph N/A   Clear
4:56 PM 97.0 °F 96.9 °F 60.1 °F 29% 30.02 in 10.0 mi SSE 13.8 mph 23.0 mph N/A   Clear
5:56 PM 98.1 °F 99.1 °F 62.1 °F 30% 29.95 in 10.0 mi SSE 13.8 mph 20.7 mph N/A   Clear
6:56 PM 97.0 °F 97.4 °F 61.0 °F 30% 29.95 in 10.0 mi SSE 15.0 mph 20.7 mph N/A   Clear
7:56 PM 95.0 °F 95.2 °F 61.0 °F 32% 29.95 in 10.0 mi SSE 13.8 mph 20.7 mph N/A   Clear
8:56 PM 91.0 °F 91.5 °F 62.1 °F 38% 30.04 in 10.0 mi SE 13.8 mph 19.6 mph N/A   Clear
9:56 PM 89.1 °F 90.0 °F 63.0 °F 42% 30.01 in 10.0 mi SE 13.8 mph 20.7 mph N/A   Clear
10:56 PM 86.0 °F 86.3 °F 62.1 °F 44% 30.08 in 10.0 mi SSE 16.1 mph 21.9 mph N/A   Clear
11:56 PM 84.0 °F 85.8 °F 64.9 °F 53% 30.03 in 10.0 mi SE 12.7 mph 23.0 mph N/A   Clear